Overview Statistics Trail Chart Weather Telemetry Raw packets
 

This is the latest recevied weather packets stored in our database for station/object KF6FPU-15. If no packets are shown the sender has not sent any weather packets the latest 10 day(s).

<< 16 17 18 19 20 21 22 >>
Time Temp. Humidity Pressure Rain* Wind** Luminosity Snow
1788393779 35° C 18% 1015.1 hPa - - - -
1788393179 35.56° C 18% 1015.2 hPa - - - -
1788392579 36.11° C 18% 1015.3 hPa - - - -
1788391979 37.22° C 18% 1015.4 hPa - - - -
1788391379 37.78° C 17% 1015.4 hPa - - - -
1788390179 40.56° C 17% 1015.4 hPa - - - -
1788389579 41.11° C 17% 1015.5 hPa - - - -
1788388979 41.11° C 17% 1015.6 hPa - - - -
1788388379 41.11° C 17% 1015.7 hPa - - - -
1788387779 41.11° C 17% 1015.8 hPa - - - -
1788387179 40.56° C 17% 1015.9 hPa - - - -
1788386579 41.67° C 17% 1016 hPa - - - -
1788386000 40.56° C 17% 1016.1 hPa - - - -
1788385380 41.11° C 17% 1016.2 hPa - - - -
1788384780 41.11° C 17% 1016.2 hPa - - - -
1788383580 40.56° C 17% 1016.5 hPa - - - -
1788382980 41.11° C 17% 1016.5 hPa - - - -
1788382380 40° C 17% 1016.4 hPa - - - -
1788381780 41.67° C 17% 1016.6 hPa - - - -
1788381180 40° C 17% 1016.7 hPa - - - -
1788380580 40° C 18% 1016.9 hPa - - - -
1788379980 39.44° C 18% 1016.8 hPa - - - -
1788379380 38.89° C 18% 1016.9 hPa - - - -
1788378780 38.89° C 18% 1017.1 hPa - - - -
1788378180 37.78° C 18% 1017.2 hPa - - - -

* Rain since midnight (hover to see other rain measurements)
** Current wind speed in m/s (hover to see current wind gust speed)